Weather History for KNHK - January, 2013

Change the Weather History Date:

Thursday, January 31, 2013

  Actual Average (KSBY) Record (KSBY)
Temperature  
Mean Temperature 48 °F 36 °F  
Max Temperature 62 °F 45 °F 70 °F (1914)
Min Temperature 33 °F 27 °F 4 °F (1948)
Degree Days  
Heating Degree Days 17 29  
Month to date heating degree days 920  
Since 1 July heating degree days 2541  
Cooling Degree Days 0 0  
Month to date cooling degree days 0  
Year to date cooling degree days 0  
Moisture  
Dew Point 35 °F    
Average Humidity 58    
Maximum Humidity 94    
Minimum Humidity 28    
Precipitation  
Precipitation 0.59 in 0.12 in 0.90 in (2000)
Month to date precipitation 3.61  
Year to date precipitation 3.61  
Snow  
Snow 0.00 in 0.10 in 2.00 in (1963)
Month to date snowfall 3.2  
Since 1 July snowfall 5.0  
Snow Depth -    
Sea Level Pressure  
Sea Level Pressure 29.54 in    
Wind  
Wind Speed 18 mph (WSW)    
Max Wind Speed 30 mph    
Max Gust Speed 40 mph    
Visibility 8 miles    
Events Rain    
T = Trace of Precipitation, MM = Missing Value Source: NWS Daily Summary

Daily Weather History Graph

Daily Weather History Graph

Search for Another Location

Airport or City:

Trip Planner

Search our weather history database for the weather conditions in past years. The results will help you decide how hot, cold, wet, or windy it might be!

Date:

Astronomy

Jan. 31, 2013 Rise Set
Actual Time 7:11 AM EST 5:27 PM EST
Civil Twilight 6:43 AM EST 5:55 PM EST
Nautical Twilight 6:11 AM EST 6:27 PM EST
Astronomical Twilight 5:40 AM EST 6:58 PM EST
Moon 10:22 PM EST (1/31) 9:14 AM EST (1/31)
Length of Visible Light 11h 11m
Length of Day
10h 16m
Waning Gibbous, 80% of the Moon is Illuminated
Jan 31
Waning Gibbous
Feb 3
Last Quarter
Feb 10
New
Feb 17
First Quarter
Feb 25
Full

Hourly Weather History & Observations

Time (EST) Temp. Windchill Dew Point Humidity Pressure Visibility Wind Dir Wind Speed Gust Speed Precip Events Conditions
12:52 AM 60.1 °F - 55.0 °F 83% 29.24 in 10.0 mi SE 17.3 mph - 0.01 in Rain Light Rain
1:52 AM 55.9 °F - 52.0 °F 87% 29.18 in 8.0 mi SE 17.3 mph 26.5 mph 0.01 in Rain Rain
2:10 AM 59.0 °F - 55.4 °F 88% 29.29 in 1.8 mi WSW 29.9 mph 38.0 mph 0.16 in Rain Heavy Rain
2:13 AM 62.6 °F - 59.0 °F 88% 29.27 in 1.0 mi SW 21.9 mph 38.0 mph 0.31 in Rain Heavy Rain
2:22 AM 62.6 °F - 60.8 °F 94% 29.26 in 1.8 mi SSW 18.4 mph 28.8 mph 0.36 in Rain Heavy Rain
2:25 AM 62.6 °F - 60.8 °F 94% 29.26 in 3.0 mi SSW 13.8 mph 25.3 mph 0.37 in Rain Rain
2:42 AM 62.6 °F - 59.0 °F 88% 29.27 in 3.0 mi West 19.6 mph 28.8 mph 0.44 in Rain Heavy Rain
2:52 AM 61.0 °F - 55.9 °F 83% 29.28 in 3.0 mi WSW 16.1 mph 29.9 mph 0.49 in Rain Heavy Rain
3:29 AM 59.0 °F - 53.6 °F 82% 29.26 in 7.0 mi SW 11.5 mph 24.2 mph 0.06 in Rain Rain
3:52 AM 57.9 °F - 53.1 °F 84% 29.26 in 10.0 mi SSW 15.0 mph 28.8 mph 0.06 in Rain Light Rain
4:52 AM 55.9 °F - 48.9 °F 77% 29.29 in 10.0 mi SW 19.6 mph 31.1 mph 0.02 in   Overcast
5:14 AM 57.2 °F - 46.4 °F 67% 29.30 in 10.0 mi SW 17.3 mph 29.9 mph N/A   Mostly Cloudy
5:52 AM 55.0 °F - 45.0 °F 69% 29.34 in 10.0 mi SW 18.4 mph 27.6 mph N/A   Mostly Cloudy
6:52 AM 53.1 °F - 36.0 °F 52% 29.42 in 10.0 mi West 21.9 mph 28.8 mph N/A   Overcast
7:52 AM 50.0 °F - 32.0 °F 50% 29.49 in 10.0 mi West 16.1 mph 27.6 mph N/A   Mostly Cloudy
8:52 AM 50.0 °F - 30.0 °F 46% 29.55 in 10.0 mi West 21.9 mph 34.5 mph N/A   Mostly Cloudy
9:52 AM 48.0 °F - 24.1 °F 39% 29.60 in 10.0 mi West 26.5 mph 34.5 mph N/A   Scattered Clouds
10:52 AM 48.9 °F - 26.1 °F 41% 29.64 in 10.0 mi WSW 24.2 mph 31.1 mph N/A   Scattered Clouds
11:52 AM 48.9 °F - 24.1 °F 38% 29.65 in 10.0 mi WSW 21.9 mph 32.2 mph N/A   Scattered Clouds
12:52 PM 50.0 °F - 23.0 °F 35% 29.66 in 10.0 mi WSW 21.9 mph 32.2 mph N/A   Scattered Clouds
1:52 PM 48.0 °F - 18.0 °F 30% 29.68 in 10.0 mi WSW 25.3 mph 38.0 mph N/A   Scattered Clouds
2:52 PM 48.0 °F - 18.0 °F 30% 29.70 in 10.0 mi WSW 26.5 mph 33.4 mph N/A   Mostly Cloudy
3:52 PM 46.9 °F - 15.1 °F 28% 29.73 in 10.0 mi WSW 26.5 mph 40.3 mph N/A   Mostly Cloudy
4:52 PM 45.0 °F 37.4 °F 16.0 °F 31% 29.78 in 10.0 mi West 18.4 mph 25.3 mph N/A   Mostly Cloudy
5:52 PM 42.1 °F 34.9 °F 18.0 °F 38% 29.82 in 10.0 mi West 13.8 mph 23.0 mph N/A   Mostly Cloudy
6:52 PM 41.0 °F 33.5 °F 14.0 °F 33% 29.86 in 10.0 mi WSW 13.8 mph 24.2 mph N/A   Scattered Clouds
7:52 PM 39.9 °F 32.5 °F 12.9 °F 33% 29.89 in 10.0 mi West 12.7 mph 20.7 mph N/A   Scattered Clouds
8:52 PM 39.0 °F 31.8 °F 14.0 °F 36% 29.90 in 10.0 mi West 11.5 mph - N/A   Partly Cloudy
9:52 PM 36.0 °F 29.6 °F 15.1 °F 43% 29.92 in 10.0 mi West 8.1 mph - N/A   Partly Cloudy
10:52 PM 34.0 °F 28.8 °F 18.0 °F 52% 29.94 in 10.0 mi NW 5.8 mph - N/A   Clear
11:52 PM 33.1 °F 30.0 °F 16.0 °F 50% 29.95 in 10.0 mi NNW 3.5 mph - N/A   Partly Cloudy